Corpus Christi, TX

4:58 AM CDT on September 21, 2017 (GMT -0500)
Corpus Christi International

Weather History for KCRP - May, 2013

Change the Weather History Date:

Thursday, May 23, 2013

  Actual Average Record
Temperature  
Mean Temperature 85 °F 80 °F  
Max Temperature 92 °F 88 °F 96 °F (1988)
Min Temperature 78 °F 71 °F 56 °F (1967)
Degree Days  
Heating Degree Days 0 0  
Month to date heating degree days 1 0  
Since 1 July heating degree days 529 898  
Cooling Degree Days 20 15  
Month to date cooling degree days 313 291  
Year to date cooling degree days 856 719  
Growing Degree Days 34 (Base 50)    
Moisture  
Dew Point 74 °F    
Average Humidity 71    
Maximum Humidity 85    
Minimum Humidity 56    
Precipitation  
Precipitation 0.00 in 0.11 in 3.42 in (1993)
Month to date precipitation 0.71 2.19  
Year to date precipitation 4.04 9.39  
Snow  
Snow 0.00 in - - ()
Month to date snowfall 0.0  
Since 1 July snowfall 0.0  
Snow Depth 0.00 in    
Sea Level Pressure  
Sea Level Pressure 29.91 in    
Wind  
Wind Speed 13 mph (SE)    
Max Wind Speed 22 mph    
Max Gust Speed 28 mph    
Visibility 9 miles    
Events      
T = Trace of Precipitation, MM = Missing Value Source: NWS Daily Summary

Daily Weather History Graph

Daily Weather History Graph

Search for Another Location

Airport or City:

Trip Planner

Search our weather history database for the weather conditions in past years. The results will help you decide how hot, cold, wet, or windy it might be!

Date:

Astronomy

May. 23, 2013 Rise Set
Actual Time 6:36 AM CDT 8:17 PM CDT
Civil Twilight 6:10 AM CDT 8:42 PM CDT
Nautical Twilight 5:39 AM CDT 9:14 PM CDT
Astronomical Twilight 5:07 AM CDT 9:46 PM CDT
Moon 6:56 PM CDT (5/23) 5:14 AM CDT (5/23)
Length of Visible Light 14h 31m
Length of Day
13h 40m
Waxing Gibbous, 97% of the Moon is Illuminated
May 23
Waxing Gibbous
May 24
Full
May 31
Last Quarter
Jun 8
New
Jun 16
First Quarter

Hourly Weather History & Observations

Time (CDT) Temp. Heat Index Dew Point Humidity Pressure Visibility Wind Dir Wind Speed Gust Speed Precip Events Conditions
12:51 AM 80.1 °F 84.5 °F 73.9 °F 81% 29.88 in 10.0 mi ESE 10.4 mph - N/A   Overcast
1:46 AM 78.8 °F - 73.4 °F 83% 29.87 in 10.0 mi ESE 6.9 mph - N/A   Scattered Clouds
1:51 AM 79.0 °F - 73.9 °F 84% 29.87 in 10.0 mi SE 6.9 mph - N/A   Partly Cloudy
2:37 AM 78.8 °F - 73.4 °F 83% 29.86 in 10.0 mi SE 5.8 mph - N/A   Mostly Cloudy
2:51 AM 79.0 °F - 73.9 °F 84% 29.86 in 10.0 mi SE 6.9 mph - N/A   Mostly Cloudy
3:03 AM 78.8 °F - 73.4 °F 83% 29.86 in 10.0 mi SE 9.2 mph - N/A   Overcast
3:51 AM 80.1 °F 84.5 °F 73.9 °F 81% 29.86 in 10.0 mi SE 9.2 mph - N/A   Overcast
4:02 AM 80.6 °F 85.4 °F 73.4 °F 79% 29.86 in 10.0 mi SE 9.2 mph - N/A   Mostly Cloudy
4:48 AM 78.8 °F - 73.4 °F 83% 29.87 in 10.0 mi ESE 8.1 mph - N/A   Overcast
4:51 AM 79.0 °F - 73.9 °F 84% 29.86 in 10.0 mi ESE 8.1 mph - N/A   Overcast
5:18 AM 78.8 °F - 73.4 °F 83% 29.87 in 10.0 mi ESE 10.4 mph - N/A   Mostly Cloudy
5:51 AM 79.0 °F - 73.9 °F 84% 29.88 in 10.0 mi ESE 8.1 mph - N/A   Overcast
6:51 AM 80.1 °F 84.5 °F 73.9 °F 81% 29.90 in 10.0 mi ESE 9.2 mph - N/A   Mostly Cloudy
7:05 AM 78.8 °F - 73.4 °F 83% 29.90 in 10.0 mi SE 9.2 mph - N/A   Scattered Clouds
7:21 AM 80.6 °F 85.4 °F 73.4 °F 79% 29.91 in 10.0 mi ESE 9.2 mph - N/A   Mostly Cloudy
7:51 AM 81.0 °F 86.7 °F 75.0 °F 82% 29.92 in 9.0 mi SE 10.4 mph - N/A   Overcast
8:51 AM 82.9 °F 90.2 °F 75.0 °F 77% 29.94 in 10.0 mi SSE 13.8 mph - N/A   Overcast
9:18 AM 84.2 °F 92.3 °F 75.2 °F 74% 29.94 in 10.0 mi SSE 16.1 mph - N/A   Overcast
9:51 AM 84.9 °F 92.1 °F 73.9 °F 69% 29.95 in 10.0 mi SSE 15.0 mph - N/A   Mostly Cloudy
10:12 AM 87.8 °F 95.6 °F 73.4 °F 62% 29.95 in 10.0 mi SE 16.1 mph - N/A   Mostly Cloudy
10:51 AM 87.1 °F 94.5 °F 73.0 °F 63% 29.95 in 10.0 mi SSE 15.0 mph 19.6 mph N/A   Mostly Cloudy
11:51 AM 89.1 °F 98.0 °F 73.9 °F 61% 29.95 in 10.0 mi SE 13.8 mph - N/A   Mostly Cloudy
12:46 PM 89.6 °F 98.2 °F 73.4 °F 59% 29.95 in 0.5 mi SE 19.6 mph 24.2 mph N/A   Haze
12:48 PM 91.4 °F 100.1 °F 73.4 °F 55% 29.95 in 10.0 mi SE 16.1 mph 24.2 mph N/A   Mostly Cloudy
12:51 PM 91.0 °F 100.4 °F 73.9 °F 57% 29.94 in 10.0 mi SE 17.3 mph 24.2 mph N/A   Mostly Cloudy
1:51 PM 91.9 °F 100.7 °F 73.0 °F 54% 29.93 in 10.0 mi SE 16.1 mph - N/A   Mostly Cloudy
2:51 PM 91.0 °F 99.3 °F 73.0 °F 55% 29.93 in 10.0 mi ESE 17.3 mph 23.0 mph N/A   Mostly Cloudy
3:51 PM 91.0 °F 99.3 °F 73.0 °F 55% 29.92 in 10.0 mi ESE 16.1 mph - N/A   Mostly Cloudy
4:51 PM 89.1 °F 97.0 °F 73.0 °F 59% 29.91 in 8.0 mi SE 16.1 mph - N/A   Mostly Cloudy
5:17 PM 87.8 °F 95.6 °F 73.4 °F 62% 29.91 in 8.0 mi SE 17.3 mph - N/A   Mostly Cloudy
5:51 PM 87.1 °F 94.5 °F 73.0 °F 63% 29.89 in 7.0 mi ESE 16.1 mph - N/A   Mostly Cloudy
6:36 PM 86.0 °F 93.4 °F 73.4 °F 66% 29.88 in 7.0 mi SE 17.3 mph - N/A   Mostly Cloudy
6:51 PM 84.9 °F 91.4 °F 73.0 °F 67% 29.88 in 7.0 mi SE 18.4 mph - N/A   Mostly Cloudy
7:14 PM 84.2 °F 90.9 °F 73.4 °F 70% 29.88 in 7.0 mi SE 17.3 mph - N/A   Mostly Cloudy
7:51 PM 82.9 °F 88.8 °F 73.0 °F 72% 29.88 in 7.0 mi SE 16.1 mph - N/A   Mostly Cloudy
8:51 PM 82.0 °F 87.4 °F 73.0 °F 74% 29.89 in 9.0 mi ESE 16.1 mph - N/A   Scattered Clouds
9:36 PM 82.4 °F 88.2 °F 73.4 °F 74% 29.92 in 10.0 mi ESE 12.7 mph - N/A   Mostly Cloudy
9:51 PM 82.0 °F 87.9 °F 73.9 °F 76% 29.94 in 10.0 mi ESE 11.5 mph - N/A   Mostly Cloudy
10:13 PM 80.6 °F 85.4 °F 73.4 °F 79% 29.96 in 10.0 mi ESE 12.7 mph - N/A   Scattered Clouds
10:51 PM 81.0 °F 86.2 °F 73.9 °F 79% 29.97 in 10.0 mi SE 13.8 mph - N/A   Scattered Clouds
11:42 PM 80.6 °F 85.4 °F 73.4 °F 79% 29.99 in 10.0 mi SE 11.5 mph - N/A   Mostly Cloudy
11:51 PM 81.0 °F 86.7 °F 75.0 °F 82% 29.99 in 9.0 mi ESE 12.7 mph - N/A   Mostly Cloudy